Preview of NWS' New Version of Forecast
This preview is not operational and should not be used for support decisions.

Regional Weather Roundup (RWR)

Issued by National Weather Service (NWS)

                            
000
ASUS44 KMEG 211110
RWRTN 
TENNESSEE HOURLY STATE WEATHER ROUNDUP
NATIONAL WEATHER SERVICE MEMPHIS TN
600 AM CDT SAT SEP 21 2019

TNZ002-004-019-021-049-052-054-088>092-211200-
WEST TENNESSEE
  
CITY           SKY/WX    TMP DP  RH WIND       PRES   REMARKS
MEMPHIS INTL   FAIR      72  60  66 S7        30.19R                  
NWS MEMPHIS      N/A     67 N/A N/A MISG        N/A                   
JACKSON        FAIR      61  59  93 S3        30.22R FOG              
DYERSBURG      FAIR      68  64  87 CALM      30.20R                  
SOMERVILLE     CLEAR     68  61  77 S5        30.19R                  
UNION CITY       N/A     66  63  88 SE5       30.18R                  
BOLIVAR        CLEAR     59  59 100 CALM      30.20S                  
PARIS          CLEAR     66  61  82 SE6       30.22R                  
HUNTINGDON     CLEAR     66  63  88 SE3       30.21R                  
LEXINGTON      CLEAR     61  59  94 CALM      30.22R FOG              
SELMER         CLEAR     66  59  77 SE6       30.22R                  
SAVANNAH       PTCLDY    63  59  88 CALM      30.23R                  
$$

TNZ008-025-027-028-033-062-065-066-211200-
NORTH MIDDLE TENNESSEE
  
CITY           SKY/WX    TMP DP  RH WIND       PRES   REMARKS
NASHVILLE      FAIR      67  57  70 S6        30.27R                  
DICKSON        SUNNY     68  55  64 S7        30.24R                  
PORTLAND       CLEAR     64  59  82 S6        30.26R                  
CLARKSVILLE    FAIR      65  60  84 SE3       30.23R                  
LEBANON        SUNNY     63  57  82 CALM      30.25R                  
SMYRNA         FAIR      63  59  87 SE5       30.28R                  
MURFREESBORO   SUNNY     64  59  82 CALM      30.26R                  
LIVINGSTON     SUNNY     66  55  68 SW6       30.30R                  
CROSSVILLE     FAIR      58  55  90 CALM      30.35R                  
ROCKWOOD       MOSUNNY   63  57  82 W6        30.33R                  
$$

TNZ061-075-076-078-094-096-097-211200-
SOUTH MIDDLE TENNESSEE
  
CITY           SKY/WX    TMP DP  RH WIND       PRES   REMARKS
LAWRENCEBURG   PTSUNNY   59  55  88 CALM      30.27R                  
LEWISBURG      SUNNY     57  55  94 CALM      30.27R                  
FAYETTEVILLE   CLEAR     59  55  88 CALM      30.27S                  
TULLAHOMA      CLEAR     59  54  82 CALM      30.28S                  
WINCHESTER     CLEAR     63  55  77 E8        30.29R                  
MCMINNVILLE    CLEAR     59  57  94 CALM      30.30R                  
COLUMBIA       CLEAR     63  63 100 CALM      30.24R                  
SHELBYVILLE    CLEAR     61  57  88 CALM      30.28R                  
$$

TNZ017-018-042-046-047-211200-
NORTHEAST TENNESSEE
  
CITY           SKY/WX    TMP DP  RH WIND       PRES   REMARKS
TRI CITIES     MOCLDY    58  57  97 CALM      30.34R                  
ELIZABETHTON   FAIR      59  57  94 CALM      30.34R                  
GREENEVILLE    MOSUNNY   63  59  88 CALM      30.33R                  
$$

TNZ012-013-036-069-073-074-211200-
CENTRAL EAST TENNESSEE
  
CITY           SKY/WX    TMP DP  RH WIND       PRES   REMARKS
KNOXVILLE      FAIR      65  59  81 CALM      30.31R                  
OAK RIDGE      FAIR      65  60  84 CALM      30.32R                  
DOWNTOWN KNOXV FOG       63  63 100 CALM      30.31R VSB 3/4          
GATLINBURG     PTCLDY    63  63 100 CALM      30.32R                  
MORRISTOWN     PTCLDY    63  61  94 CALM      30.32R                  
JACKSBORO      CLEAR     59  59 100 CALM      30.35R                  
$$

TNZ083-085-099-211200-
SOUTHEAST TENNESSEE
  
CITY           SKY/WX    TMP DP  RH WIND       PRES   REMARKS
CHATTANOOGA    FAIR      60  58  92 CALM      30.32R                  
$$

SKY/WX REPORTED AS FAIR MEANS FEW OR NO CLOUDS BELOW
12 THOUSAND FEET.